Location: Krakow
(50.0830°N, 19.9170°E)
Time: 06:36:23
(UTC+02:00)

A-11 Canister half - Pass Details

Date: 24 March 2026
Orbit: 1523 x 1684 km, 47.3° (Epoch: 18 April)

Event Time Altitude Azimuth Distance (km) Brightness Sun altitude
Rises 07:47:40 0° 239° (WSW) 4,915 11.3 20.0°
Reaches altitude 10° 07:50:53 10° 237° (WSW) 3,916 10.9 20.5°
Maximum altitude 08:00:43 64° 159° (SSE) 1,785 10.1 21.9°
Drops below altitude 10° 08:10:15 10° 82° (E) 3,805 12.1 23.3°
Sets 08:13:19 0° 79° (E) 4,769 12.3 23.7°
